Regional Weather Roundup
Issued by NWS State College, PA

Home | Current Version | Previous Version | Graphics & Text | Print | Product List | Glossary On
Versions: 1 2 3 4 5 6 7 8 9 10 11 12 13 14 15 16 17 18 19 20 21 22 23 24 25 26 27 28 29 30 31 32 33 34 35 36 37 38 39 40 41 42 43 44 45 46 47 48 49 50
780
ASUS41 KCTP 281903
RWRCTP

REGIONAL WEATHER ROUNDUP
NATIONAL WEATHER SERVICE STATE COLLEGE PA
300 PM EDT SUN MAY 28 2017

Note: "fair" indicates few or no clouds below 12,000 feet with no
significant weather and/or obstructions to visibility.

* = STATION THAT DOES NOT REPORT PRECIPITATION /E.G. RAIN...SNOW...ETC/
    THUNDER OR FOG.

PAZ002>004-007>009-013>016-020>023-029>032-282000-
WESTERN PENNSYLVANIA

CITY           SKY/WX    TMP DP  RH WIND       PRES   REMARKS
ERIE           CLOUDY    74  60  61 N14       29.74F
MEADVILLE      MOSUNNY   75  63  66 VRB7      29.75F
FRANKLIN*      CLOUDY    73  63  68 SE10      29.78F
NEW CASTLE     MOCLDY    77  67  71 VRB7      29.76F
BEAVER COUNTY  NOT AVBL
BUTLER*        CLOUDY    73  64  73 SW7       29.78S
PITTSBURGH INT CLOUDY    73  66  78 VRB7      29.77F
PITTSBURGH     CLOUDY    73  64  73 S10       29.77F
INDIANA*       CLOUDY    72  64  78 SE8       29.83S
LATROBE        CLOUDY    75  66  73 SW12      29.79F
WASHINGTON CO* CLOUDY    73  64  73 S6        29.80S
$$

PAZ004>006-010>012-017>019-024>028-033>037-041-042-045-046-049>053-282000-
CENTRAL PENNSYLVANIA

CITY           SKY/WX    TMP DP  RH WIND       PRES   REMARKS
BRADFORD       CLOUDY    70  61  73 S9        29.83S
DUBOIS         CLOUDY    66  60  81 SE12      29.82F
CLEARFIELD     CLOUDY    65  61  87 VRB3      29.85F
JOHNSTOWN      CLOUDY    65  61  87 SE7       29.84F
ALTOONA        CLOUDY    66  62  87 SE7G26    29.86F
STATE COLLEGE  CLOUDY    64  59  82 S6        29.86F
WILLIAMSPORT   CLOUDY    73  60  63 VRB3      29.83F
SELINSGROVE    CLOUDY    71  62  73 SW3       29.86F HAZE
FT INDIANTOWN  LGT RAIN  70  63  78 SE3       29.87S
CAPITAL CITY   LGT RAIN  72  60  66 SE7       29.86F
HARRISBURG     CLOUDY    71  63  75 SE7       29.86F
YORK           CLOUDY    71  62  73 SE8       29.86F
$$

PAZ038>040-043-044-047-048-054-055-060>062-067>071-282000-
EASTERN PENNSYLVANIA

CITY           SKY/WX    TMP DP  RH WIND       PRES   REMARKS
SCRANTON       CLOUDY    74  54  49 VRB6      29.87F
MOUNT POCONO   CLOUDY    67  54  63 SE10G17   29.92F
ALLENTOWN      PTSUNNY   77  56  48 SE10      29.87F
QUAKERTOWN*    CLOUDY    73  59  60 SE9       29.89F
READING        CLOUDY    74  61  63 SE10G17   29.86F
LANCASTER      CLOUDY    73  64  73 SE7       29.87F
COATESVILLE    CLOUDY    70  61  73 SE8       29.90S
POTTSTOWN      CLOUDY    73  60  63 S8        29.89F
BLUE BELL      CLOUDY    72  61  68 SE9       29.89F
DOYLESTOWN     CLOUDY    73  59  61 S8G16     29.89F
WILLOW GROVE   NOT AVBL
NORTH PHILA    PTSUNNY   77  59  53 SE15      29.90F
PHILADELPHIA   PTSUNNY   76  60  57 SE10      29.88F
$$




USA.gov is the U.S. government's official web portal to all federal, state and local government web resources and services.